N4CVG Weather Reports


time (UTC)temp
C
wind
direction
speed
KPH
gust
KPH
rain 1hr
cm
rain 24hr
cm
rain mn
cm
humidity
%
barometer
mb
20260503174003 15 342 6.4 11.3 0.00 0.00 0.00 41 1019.4
20260503173003 14 342 4.8 16.1 0.00 0.00 0.00 42 1019.7
20260503172003 14 342 8.0 24.1 0.00 0.00 0.00 39 1019.7
20260503171002 14 342 4.8 12.9 0.00 0.00 0.00 39 1019.9
20260503131003 5 342 3.2 8.0 0.00 0.00 0.00 76 1021.1
20260503081002 2 352 0.0 0.0 0.00 0.00 0.00 77 1019.1
20260503072003 3 352 0.0 0.0 0.00 0.00 0.00 72 1019.0
20260503071004 3 352 0.0 0.0 0.00 0.00 0.00 73 1018.9
20260503055025 5 351 3.2 4.8 0.00 0.00 0.00 72 1019.0
20260503054003 5 351 3.2 4.8 0.00 0.00 0.00 71 1019.0
20260503053004 5 351 3.2 4.8 0.00 0.00 0.00 71 1019.0
20260503052002 5 351 3.2 4.8 0.00 0.00 0.00 70 1018.9
20260503051003 5 351 3.2 4.8 0.00 0.00 0.00 70 1019.0
20260503050001 5 347 4.8 6.4 0.00 0.00 0.00 70 1019.0
20260503045000 5 342 3.2 4.8 0.00 0.00 0.00 70 1019.0
20260503043000 6 342 3.2 4.8 0.00 0.00 0.00 68 1018.9
20260503042000 6 342 3.2 8.0 0.00 0.00 0.00 68 1018.8
20260503041021 6 1 3.2 6.4 0.00 0.00 0.00 69 1018.8
20260503040021 6 357 3.2 8.0 0.00 0.00 0.00 69 1018.7
20260503034000 6 345 3.2 4.8 0.00 0.00 0.00 66 1018.6
20260503033021 6 342 3.2 4.8 0.00 0.00 0.00 67 1018.5
20260503032000 7 342 1.6 6.4 0.00 0.00 0.00 68 1018.5
20260503030959 7 342 3.2 6.4 0.00 0.00 0.00 68 1018.3
20260503030000 7 342 3.2 6.4 0.00 0.00 0.00 69 1018.3
20260503024959 7 342 1.6 3.2 0.00 0.00 0.00 70 1018.3
20260503024022 7 342 1.6 3.2 0.00 0.00 0.00 70 1018.1
20260503023001 7 342 3.2 3.2 0.00 0.00 0.00 67 1018.0
20260503022023 8 342 1.6 4.8 0.00 0.00 0.00 67 1018.0
20260503021000 8 342 3.2 3.2 0.00 0.00 0.00 65 1017.9
20260503020000 8 342 1.6 4.8 0.00 0.00 0.00 65 1017.7
20260503015000 8 342 1.6 4.8 0.00 0.00 0.00 64 1017.6
20260503013000 8 342 1.6 3.2 0.00 0.00 0.00 62 1017.5
20260503012000 8 343 0.0 3.2 0.00 0.00 0.00 62 1017.4
20260503011000 8 342 1.6 4.8 0.00 0.00 0.00 61 1017.2
20260503010001 9 342 1.6 3.2 0.00 0.00 0.00 61 1017.0
20260503004959 9 342 1.6 3.2 0.00 0.00 0.00 60 1016.9
20260503004000 9 342 3.2 3.2 0.00 0.00 0.00 61 1016.9
20260503003000 9 342 1.6 3.2 0.00 0.00 0.00 60 1016.8
20260503002000 10 342 1.6 3.2 0.00 0.00 0.00 59 1016.8
20260503001000 10 342 3.2 4.8 0.00 0.00 0.00 58 1016.6
20260503000001 10 342 1.6 8.0 0.00 0.00 0.00 58 1016.5
20260502235001 10 342 3.2 6.4 0.00 0.00 0.00 56 1016.3
20260502234000 11 342 3.2 8.0 0.00 0.00 0.00 55 1016.2
20260502233001 11 342 3.2 6.4 0.00 0.00 0.00 55 1016.2
20260502231959 11 342 6.4 12.9 0.00 0.00 0.00 53 1016.2
20260502231001 11 342 4.8 12.9 0.00 0.00 0.00 53 1016.3
20260502230001 12 342 4.8 14.5 0.00 0.00 0.00 52 1016.3
20260502225000 11 342 4.8 9.7 0.00 0.00 0.00 56 1016.4
20260502224000 11 342 3.2 12.9 0.00 0.00 0.00 53 1016.3
20260502223021 12 342 4.8 11.3 0.00 0.00 0.00 54 1016.4
20260502222000 12 342 3.2 14.5 0.00 0.00 0.00 53 1016.3
20260502221000 12 342 3.2 11.3 0.00 0.00 0.00 55 1016.3
20260502220022 11 342 1.6 16.1 0.00 0.00 0.00 58 1016.3
20260502215002 11 342 6.4 17.7 0.00 0.00 0.00 55 1016.2
20260502214000 11 342 4.8 11.3 0.00 0.00 0.00 56 1016.2
20260502213000 12 342 1.6 11.3 0.00 0.00 0.00 57 1016.1
20260502212000 12 342 3.2 9.7 0.00 0.00 0.00 58 1016.1
20260502211000 12 342 4.8 8.0 0.00 0.00 0.00 56 1016.1
20260502210000 12 342 3.2 12.9 0.00 0.00 0.00 57 1016.0
20260502205021 12 342 4.8 8.0 0.00 0.00 0.00 52 1016.0
20260502204001 12 342 4.8 11.3 0.00 0.00 0.00 54 1016.1
20260502203021 12 342 3.2 12.9 0.00 0.00 0.00 56 1016.1
20260502202001 12 342 3.2 11.3 0.00 0.00 0.00 58 1016.2
20260502201021 11 342 3.2 11.3 0.00 0.00 0.00 54 1016.4
20260502200000 12 342 3.2 11.3 0.00 0.00 0.00 55 1016.4
20260502195000 12 342 4.8 11.3 0.00 0.00 0.00 52 1016.4
20260502194002 12 342 3.2 8.0 0.00 0.00 0.00 53 1016.4
20260502193002 12 342 4.8 14.5 0.00 0.00 0.00 55 1016.5
20260502192000 12 342 0.0 8.0 0.00 0.00 0.00 55 1016.5
20260502191000 13 342 3.2 8.0 0.00 0.00 0.00 52 1016.5
20260502190042 12 342 3.2 6.4 0.00 0.00 0.00 59 1016.6
20260502185000 11 342 4.8 9.7 0.00 0.00 0.00 54 1016.7
20260502184004 12 342 3.2 8.0 0.00 0.00 0.00 58 1016.8
20260502183000 12 342 3.2 9.7 0.00 0.00 0.00 55 1016.7
20260502182001 12 342 1.6 9.7 0.00 0.00 0.00 58 1016.8
20260502181000 12 342 1.6 9.7 0.00 0.00 0.00 54 1016.9